Iron Mountain, MI

1:22 PM CDT on May 27, 2017 (GMT -0500)
Ford

Weather History for KIMT - November, 2010

Change the Weather History Date:

Friday, November 19, 2010

  Actual Average Record
Temperature  
Mean Temperature 32 °F -  
Max Temperature 36 °F 39 °F 62 °F (1953)
Min Temperature 25 °F 24 °F 0 °F (1986)
Degree Days  
Heating Degree Days 34    
Moisture  
Dew Point 23 °F    
Average Humidity 72    
Maximum Humidity 82    
Minimum Humidity 42    
Precipitation  
Precipitation 0.00 in - - ()
Sea Level Pressure  
Sea Level Pressure 29.95 in    
Wind  
Wind Speed 9 mph (SSW)    
Max Wind Speed 17 mph    
Max Gust Speed 29 mph    
Visibility 9 miles    
Events      
Averages and records for this station are not official NWS values.
T = Trace of Precipitation, MM = Missing Value Source: NWS Daily Summary

Daily Weather History Graph

Daily Weather History Graph

Search for Another Location

Airport or City:

Trip Planner

Search our weather history database for the weather conditions in past years. The results will help you decide how hot, cold, wet, or windy it might be!

Date:

Astronomy

Nov. 19, 2010 Rise Set
Actual Time 6:57 AM CST 4:17 PM CST
Civil Twilight 6:25 AM CST 4:50 PM CST
Nautical Twilight 5:48 AM CST 5:26 PM CST
Astronomical Twilight 5:13 AM CST 6:01 PM CST
Moon 2:49 PM CST (11/19) 4:52 AM CST (11/19)
Length of Visible Light 10h 24m
Length of Day
9h 19m
Waxing Gibbous, 96% of the Moon is Illuminated
Nov 19
Waxing Gibbous
Nov 21
Full
Nov 28
Last Quarter
Dec 5
New
Dec 13
First Quarter

Hourly Weather History & Observations

Time (CST) Temp. Windchill Dew Point Humidity Pressure Visibility Wind Dir Wind Speed Gust Speed Precip Events Conditions
12:54 AM 27.0 °F 20.5 °F 18.0 °F 69% 30.19 in 10.0 mi SE 5.8 mph - N/A   Overcast
1:54 AM 27.0 °F 21.6 °F 18.0 °F 69% 30.17 in 10.0 mi SE 4.6 mph - N/A   Mostly Cloudy
2:54 AM 28.0 °F 21.7 °F 19.0 °F 69% 30.13 in 10.0 mi SE 5.8 mph - N/A   Overcast
3:54 AM 28.9 °F 21.9 °F 21.0 °F 72% 30.10 in 10.0 mi SSE 6.9 mph - N/A   Overcast
4:54 AM 28.9 °F 19.8 °F 21.0 °F 72% 30.07 in 10.0 mi South 10.4 mph - N/A   Partly Cloudy
5:09 AM 28.4 °F 19.7 °F 21.2 °F 74% 30.00 in 10.0 mi South 9.2 mph - N/A   Mostly Cloudy
5:54 AM 30.0 °F 20.5 °F 21.9 °F 72% 30.03 in 10.0 mi SSE 11.5 mph - N/A   Mostly Cloudy
6:54 AM 30.0 °F 20.5 °F 23.0 °F 75% 29.99 in 10.0 mi SSE 11.5 mph 20.7 mph N/A   Overcast
7:54 AM 30.9 °F 20.7 °F 24.1 °F 76% 29.95 in 10.0 mi SSE 13.8 mph 21.9 mph N/A   Overcast
8:54 AM 30.9 °F 20.2 °F 24.1 °F 76% 29.93 in 10.0 mi South 15.0 mph 19.6 mph N/A   Overcast
9:54 AM 30.9 °F 21.2 °F 25.0 °F 79% 29.89 in 9.0 mi South 12.7 mph 20.7 mph N/A   Overcast
10:54 AM 32.0 °F 22.1 °F 26.1 °F 79% 29.87 in 8.0 mi SSW 13.8 mph 19.6 mph N/A   Overcast
11:39 AM 32.0 °F 23.0 °F 26.6 °F 80% 29.80 in 7.0 mi South 11.5 mph - N/A   Overcast
11:54 AM 32.0 °F 22.1 °F 27.0 °F 82% 29.84 in 7.0 mi SSW 13.8 mph 19.6 mph N/A   Overcast
12:54 PM 33.1 °F 26.1 °F 28.0 °F 82% 29.84 in 6.0 mi SSW 8.1 mph - N/A   Haze
1:54 PM 34.0 °F 28.0 °F 28.9 °F 82% 29.81 in 8.0 mi Variable 6.9 mph 16.1 mph N/A   Overcast
2:54 PM 35.1 °F 27.9 °F 30.0 °F 82% 29.82 in 10.0 mi WSW 9.2 mph 16.1 mph N/A   Overcast
3:11 PM 35.6 °F 29.2 °F 30.2 °F 81% 29.78 in 10.0 mi WSW 8.1 mph 18.4 mph N/A   Overcast
3:54 PM 36.0 °F 29.0 °F 30.0 °F 79% 29.84 in 10.0 mi WSW 9.2 mph - N/A   Overcast
4:54 PM 35.1 °F 26.9 °F 28.9 °F 78% 29.86 in 10.0 mi WSW 11.5 mph - N/A   Partly Cloudy
5:54 PM 34.0 °F 28.0 °F 28.0 °F 79% 29.88 in 10.0 mi WSW 6.9 mph - N/A   Clear
6:54 PM 34.0 °F 27.2 °F 27.0 °F 75% 29.89 in 10.0 mi West 8.1 mph - N/A   Clear
7:54 PM 33.1 °F 26.1 °F 26.1 °F 75% 29.90 in 10.0 mi West 8.1 mph - N/A   Clear
8:54 PM 32.0 °F 20.8 °F 10.9 °F 42% 29.94 in 10.0 mi West 17.3 mph 28.8 mph N/A   Clear
9:54 PM 28.9 °F 16.9 °F 10.0 °F 45% 29.99 in 10.0 mi WNW 17.3 mph 24.2 mph N/A   Clear
10:54 PM 27.0 °F 14.7 °F 10.0 °F 49% 30.04 in 10.0 mi NW 16.1 mph 27.6 mph N/A   Clear
11:54 PM 25.0 °F 15.5 °F 10.9 °F 55% 30.07 in 10.0 mi WNW 9.2 mph 23.0 mph N/A   Clear